{"data":{"norad_id":66119,"epoch":"2026-09-19T10:30:18.441216Z","epoch_age_seconds":192187,"freshness":"STALE","line1":"1 66119U 25237F   26262.43771344  .00029134  00000+0  86971-3 0  9995","line2":"2 66119  53.1579 216.8892 0001335  87.1509 272.9646 15.34412307 52310","mean_motion":15.34412307,"eccentricity":0.0001335,"inclination_deg":53.1579,"raan_deg":216.8892,"arg_perigee_deg":87.1509,"mean_anomaly_deg":272.9646,"bstar":0.00086971,"rev_number":5231,"period_min":93.84700536034,"perigee_km":461.75341416521,"apogee_km":463.57990874282,"semimajor_km":6840.803661454,"source":"CELESTRAK","updated_at":"2026-09-21T09:00:35.807186Z"}}